Time,TemperatureF,DewpointF,PressureIn,WindDirection,WindDirectionDegrees,WindSpeedMPH,WindSpeedGustMPH,Humidity,HourlyPrecipIn,Conditions,Clouds,dailyrainin,SoftwareType,DateUTC
2013-03-03 00:00:00,47.6,26.2,30.30,ENE,61,0.0,0.0,43,0.00,,CLR,0.00,VWS V14.01,2013-03-03 06:00:00,
2013-03-03 00:05:00,47.3,26.0,30.30,ENE,61,0.0,0.0,43,0.00,,CLR,0.00,VWS V14.01,2013-03-03 06:05:00,
2013-03-03 00:10:00,47.1,25.8,30.30,ENE,61,0.0,0.0,43,0.00,,CLR,0.00,VWS V14.01,2013-03-03 06:10:00,
2013-03-03 00:15:00,47.0,26.2,30.30,ENE,61,0.0,0.0,44,0.00,,CLR,0.00,VWS V14.01,2013-03-03 06:15:00,
2013-03-03 00:20:00,46.8,26.0,30.30,ENE,61,0.0,0.0,44,0.00,,CLR,0.00,VWS V14.01,2013-03-03 06:20:00,
2013-03-03 00:25:00,46.7,25.4,30.30,ENE,61,0.0,0.0,43,0.00,,CLR,0.00,VWS V14.01,2013-03-03 06:25:00,
2013-03-03 00:30:00,46.7,26.0,30.30,ENE,61,0.0,0.0,44,0.00,,CLR,0.00,VWS V14.01,2013-03-03 06:30:00,
2013-03-03 00:35:00,46.5,25.8,30.30,ENE,61,0.0,0.0,44,0.00,,CLR,0.00,VWS V14.01,2013-03-03 06:35:00,
2013-03-03 00:40:00,46.4,26.2,30.30,ENE,61,0.0,0.0,45,0.00,,CLR,0.00,VWS V14.01,2013-03-03 06:40:00,
2013-03-03 00:45:00,46.1,26.0,30.30,ENE,61,0.0,0.0,45,0.00,,CLR,0.00,VWS V14.01,2013-03-03 06:45:00,
2013-03-03 00:50:00,46.0,25.9,30.30,ENE,61,0.0,0.0,45,0.00,,CLR,0.00,VWS V14.01,2013-03-03 06:50:00,
2013-03-03 00:55:00,45.8,25.7,30.30,ENE,61,0.0,0.0,45,0.00,,CLR,0.00,VWS V14.01,2013-03-03 06:55:00,
2013-03-03 01:00:00,45.5,25.9,30.30,ENE,61,0.0,0.0,46,0.00,,CLR,0.00,VWS V14.01,2013-03-03 07:00:00,
2013-03-03 01:05:00,45.4,26.9,30.30,ENE,61,0.0,0.0,48,0.00,,CLR,0.00,VWS V14.01,2013-03-03 07:05:00,
2013-03-03 01:10:00,45.2,27.2,30.30,ENE,61,0.0,0.0,49,0.00,,CLR,0.00,VWS V14.01,2013-03-03 07:10:00,
2013-03-03 01:15:00,45.1,27.6,30.30,ENE,61,0.0,0.0,50,0.00,,CLR,0.00,VWS V14.01,2013-03-03 07:15:00,
2013-03-03 01:20:00,44.8,27.8,30.30,ENE,61,0.0,0.0,51,0.00,,CLR,0.00,VWS V14.01,2013-03-03 07:20:00,
2013-03-03 01:25:00,44.5,27.5,30.30,ENE,61,0.0,0.0,51,0.00,,CLR,0.00,VWS V14.01,2013-03-03 07:25:00,
2013-03-03 01:30:00,44.3,27.8,30.30,ENE,61,0.0,0.0,52,0.00,,CLR,0.00,VWS V14.01,2013-03-03 07:30:00,
2013-03-03 01:35:00,44.2,27.7,30.30,ENE,61,0.0,0.0,52,0.00,,CLR,0.00,VWS V14.01,2013-03-03 07:35:00,
2013-03-03 01:40:00,44.1,27.6,30.30,ENE,61,0.0,0.0,52,0.00,,CLR,0.00,VWS V14.01,2013-03-03 07:40:00,
2013-03-03 01:45:00,43.9,27.4,30.30,ENE,61,0.0,0.0,52,0.00,,CLR,0.00,VWS V14.01,2013-03-03 07:45:00,
2013-03-03 01:50:00,43.6,27.1,30.30,ENE,61,0.0,0.0,52,0.00,,CLR,0.00,VWS V14.01,2013-03-03 07:50:00,
2013-03-03 01:55:00,43.5,27.5,30.30,ENE,61,0.0,0.0,53,0.00,,CLR,0.00,VWS V14.01,2013-03-03 07:55:00,
2013-03-03 02:00:00,43.1,27.1,30.30,ENE,61,0.0,0.0,53,0.00,,CLR,0.00,VWS V14.01,2013-03-03 08:00:00,
2013-03-03 02:05:00,42.9,27.0,30.30,ENE,61,0.0,0.0,53,0.00,,CLR,0.00,VWS V14.01,2013-03-03 08:05:00,
2013-03-03 02:10:00,42.8,26.9,30.30,ENE,61,0.0,0.0,53,0.00,,CLR,0.00,VWS V14.01,2013-03-03 08:10:00,
2013-03-03 02:15:00,42.8,26.9,30.30,ENE,61,0.0,0.0,53,0.00,,CLR,0.00,VWS V14.01,2013-03-03 08:15:00,
2013-03-03 02:20:00,42.6,26.7,30.30,ENE,61,0.0,0.0,53,0.00,,CLR,0.00,VWS V14.01,2013-03-03 08:20:00,
2013-03-03 02:25:00,42.5,26.6,30.30,ENE,61,0.0,0.0,53,0.00,,CLR,0.00,VWS V14.01,2013-03-03 08:25:00,
2013-03-03 02:30:00,42.3,26.4,30.30,ENE,61,0.0,0.0,53,0.00,,CLR,0.00,VWS V14.01,2013-03-03 08:30:00,
2013-03-03 02:35:00,42.2,26.8,30.29,ENE,61,0.0,0.0,54,0.00,,CLR,0.00,VWS V14.01,2013-03-03 08:35:00,
2013-03-03 02:40:00,42.2,26.3,30.29,ENE,61,0.0,0.0,53,0.00,,CLR,0.00,VWS V14.01,2013-03-03 08:40:00,
2013-03-03 02:45:00,42.1,26.7,30.29,ENE,61,0.0,0.0,54,0.00,,CLR,0.00,VWS V14.01,2013-03-03 08:45:00,
2013-03-03 02:50:00,41.9,26.5,30.28,ENE,61,0.0,0.0,54,0.00,,CLR,0.00,VWS V14.01,2013-03-03 08:50:00,
2013-03-03 02:55:00,41.9,26.5,30.28,ENE,61,0.0,0.0,54,0.00,,CLR,0.00,VWS V14.01,2013-03-03 08:55:00,
2013-03-03 03:00:00,41.9,26.5,30.28,ENE,61,0.0,0.0,54,0.00,,CLR,0.00,VWS V14.01,2013-03-03 09:00:00,
2013-03-03 03:05:00,41.8,26.4,30.27,ENE,61,0.0,0.0,54,0.00,,CLR,0.00,VWS V14.01,2013-03-03 09:05:00,
2013-03-03 03:10:00,41.6,26.2,30.27,ENE,61,0.0,0.0,54,0.00,,CLR,0.00,VWS V14.01,2013-03-03 09:10:00,
2013-03-03 03:15:00,41.5,26.1,30.27,ENE,61,0.0,0.0,54,0.00,,CLR,0.00,VWS V14.01,2013-03-03 09:15:00,
2013-03-03 03:20:00,41.2,25.8,30.27,ENE,61,0.0,0.0,54,0.00,,CLR,0.00,VWS V14.01,2013-03-03 09:20:00,
2013-03-03 03:25:00,41.1,25.7,30.27,ENE,61,0.0,0.0,54,0.00,,CLR,0.00,VWS V14.01,2013-03-03 09:25:00,
2013-03-03 03:30:00,40.9,25.5,30.27,ENE,61,0.0,0.0,54,0.00,,CLR,0.00,VWS V14.01,2013-03-03 09:30:00,
2013-03-03 03:35:00,40.8,25.5,30.26,ENE,61,0.0,0.0,54,0.00,,CLR,0.00,VWS V14.01,2013-03-03 09:35:00,
2013-03-03 03:40:00,40.6,25.7,30.26,ENE,61,0.0,0.0,55,0.00,,CLR,0.00,VWS V14.01,2013-03-03 09:40:00,
2013-03-03 03:45:00,40.6,25.7,30.26,ENE,61,0.0,0.0,55,0.00,,CLR,0.00,VWS V14.01,2013-03-03 09:45:00,
2013-03-03 03:50:00,40.5,25.6,30.26,ENE,61,0.0,0.0,55,0.00,,CLR,0.00,VWS V14.01,2013-03-03 09:50:00,
2013-03-03 03:55:00,40.3,25.9,30.26,ENE,61,0.0,0.0,56,0.00,,CLR,0.00,VWS V14.01,2013-03-03 09:55:00,
2013-03-03 04:00:00,40.2,26.2,30.26,ENE,61,0.0,0.0,57,0.00,,CLR,0.00,VWS V14.01,2013-03-03 10:00:00,
2013-03-03 04:05:00,39.9,26.3,30.26,ENE,61,0.0,0.0,58,0.00,,CLR,0.00,VWS V14.01,2013-03-03 10:05:00,
2013-03-03 04:10:00,39.6,26.5,30.26,ENE,61,0.0,0.0,59,0.00,,CLR,0.00,VWS V14.01,2013-03-03 10:10:00,
2013-03-03 04:15:00,39.6,26.5,30.26,ENE,61,0.0,0.0,59,0.00,,CLR,0.00,VWS V14.01,2013-03-03 10:15:00,
2013-03-03 04:20:00,39.5,26.4,30.26,ENE,61,0.0,0.0,59,0.00,,CLR,0.00,VWS V14.01,2013-03-03 10:20:00,
2013-03-03 04:25:00,39.5,26.8,30.26,ENE,61,0.0,0.0,60,0.00,,CLR,0.00,VWS V14.01,2013-03-03 10:25:00,
2013-03-03 04:30:00,39.3,26.6,30.26,ENE,61,0.0,0.0,60,0.00,,CLR,0.00,VWS V14.01,2013-03-03 10:30:00,
2013-03-03 04:35:00,39.1,26.8,30.27,ENE,61,0.0,0.0,61,0.00,,CLR,0.00,VWS V14.01,2013-03-03 10:35:00,
2013-03-03 04:40:00,38.9,26.6,30.27,ENE,61,0.0,0.0,61,0.00,,CLR,0.00,VWS V14.01,2013-03-03 10:40:00,
2013-03-03 04:45:00,38.8,26.5,30.27,ENE,61,0.0,0.0,61,0.00,,CLR,0.00,VWS V14.01,2013-03-03 10:45:00,
2013-03-03 04:50:00,38.5,26.6,30.27,ENE,61,0.0,0.0,62,0.00,,CLR,0.00,VWS V14.01,2013-03-03 10:50:00,
2013-03-03 04:55:00,38.3,26.8,30.27,ENE,61,0.0,0.0,63,0.00,,CLR,0.00,VWS V14.01,2013-03-03 10:55:00,
2013-03-03 05:00:00,38.2,26.7,30.27,ENE,61,0.0,0.0,63,0.00,,CLR,0.00,VWS V14.01,2013-03-03 11:00:00,
2013-03-03 05:05:00,38.0,26.9,30.27,ENE,61,0.0,0.0,64,0.00,,CLR,0.00,VWS V14.01,2013-03-03 11:05:00,
2013-03-03 05:10:00,38.0,26.9,30.27,ENE,61,0.0,0.0,64,0.00,,CLR,0.00,VWS V14.01,2013-03-03 11:10:00,
2013-03-03 05:15:00,38.0,26.9,30.27,ENE,61,0.0,0.0,64,0.00,,CLR,0.00,VWS V14.01,2013-03-03 11:15:00,
2013-03-03 05:20:00,38.0,26.9,30.27,ENE,61,0.0,0.0,64,0.00,,CLR,0.00,VWS V14.01,2013-03-03 11:20:00,
2013-03-03 05:25:00,38.0,26.9,30.27,ENE,61,0.0,0.0,64,0.00,,CLR,0.00,VWS V14.01,2013-03-03 11:25:00,
2013-03-03 05:30:00,38.2,27.1,30.27,ENE,61,0.0,0.0,64,0.00,,CLR,0.00,VWS V14.01,2013-03-03 11:30:00,
2013-03-03 05:35:00,38.2,27.1,30.27,ENE,61,0.0,0.0,64,0.00,,CLR,0.00,VWS V14.01,2013-03-03 11:35:00,
2013-03-03 05:40:00,38.3,26.8,30.27,ENE,61,0.0,0.0,63,0.00,,CLR,0.00,VWS V14.01,2013-03-03 11:40:00,
2013-03-03 05:45:00,38.2,27.1,30.27,ENE,61,0.0,0.0,64,0.00,,CLR,0.00,VWS V14.01,2013-03-03 11:45:00,
2013-03-03 05:50:00,38.0,26.9,30.27,ENE,61,0.0,0.0,64,0.00,,CLR,0.00,VWS V14.01,2013-03-03 11:50:00,
2013-03-03 05:55:00,38.0,26.9,30.27,ENE,61,0.0,0.0,64,0.00,,CLR,0.00,VWS V14.01,2013-03-03 11:55:00,
2013-03-03 06:00:00,37.9,26.8,30.27,ENE,61,0.0,0.0,64,0.00,,CLR,0.00,VWS V14.01,2013-03-03 12:00:00,
2013-03-03 06:05:00,37.9,26.8,30.27,ENE,61,0.0,0.0,64,0.00,,CLR,0.00,VWS V14.01,2013-03-03 12:05:00,
2013-03-03 06:10:00,37.8,26.7,30.27,ENE,61,0.0,0.0,64,0.00,,CLR,0.00,VWS V14.01,2013-03-03 12:10:00,
2013-03-03 06:15:00,37.9,26.8,30.27,ENE,61,0.0,0.0,64,0.00,,CLR,0.00,VWS V14.01,2013-03-03 12:15:00,
2013-03-03 06:20:00,37.9,26.8,30.27,ENE,61,0.0,0.0,64,0.00,,CLR,0.00,VWS V14.01,2013-03-03 12:20:00,
2013-03-03 06:25:00,38.0,26.9,30.27,ENE,61,0.0,0.0,64,0.00,,CLR,0.00,VWS V14.01,2013-03-03 12:25:00,
2013-03-03 06:30:00,38.0,27.3,30.27,ENE,61,0.0,0.0,65,0.00,,CLR,0.00,VWS V14.01,2013-03-03 12:30:00,
2013-03-03 06:35:00,38.0,27.3,30.27,ENE,61,0.0,0.0,65,0.00,,CLR,0.00,VWS V14.01,2013-03-03 12:35:00,
2013-03-03 06:40:00,38.0,27.3,30.27,ENE,61,0.0,0.0,65,0.00,,CLR,0.00,VWS V14.01,2013-03-03 12:40:00,
2013-03-03 06:45:00,38.0,27.3,30.27,ENE,61,0.0,0.0,65,0.00,,CLR,0.00,VWS V14.01,2013-03-03 12:45:00,
2013-03-03 06:50:00,38.0,27.7,30.27,ENE,61,0.0,0.0,66,0.00,,CLR,0.00,VWS V14.01,2013-03-03 12:50:00,
2013-03-03 06:55:00,37.9,27.6,30.27,ENE,61,0.0,0.0,66,0.00,,CLR,0.00,VWS V14.01,2013-03-03 12:55:00,
2013-03-03 07:00:00,37.8,27.5,30.27,ENE,61,0.0,0.0,66,0.00,,CLR,0.00,VWS V14.01,2013-03-03 13:00:00,
2013-03-03 07:05:00,37.6,27.3,30.28,ENE,61,0.0,0.0,66,0.00,,CLR,0.00,VWS V14.01,2013-03-03 13:05:00,
2013-03-03 07:10:00,37.5,27.2,30.28,ENE,61,0.0,0.0,66,0.00,,CLR,0.00,VWS V14.01,2013-03-03 13:10:00,
2013-03-03 07:15:00,37.5,27.2,30.28,ENE,61,0.0,0.0,66,0.00,,CLR,0.00,VWS V14.01,2013-03-03 13:15:00,
2013-03-03 07:20:00,37.6,27.3,30.28,ENE,61,0.0,0.0,66,0.00,,CLR,0.00,VWS V14.01,2013-03-03 13:20:00,
2013-03-03 07:25:00,37.9,27.6,30.28,ENE,61,0.0,0.0,66,0.00,,CLR,0.00,VWS V14.01,2013-03-03 13:25:00,
2013-03-03 07:30:00,38.5,27.8,30.28,ENE,61,0.0,0.0,65,0.00,,CLR,0.00,VWS V14.01,2013-03-03 13:30:00,
2013-03-03 07:35:00,39.2,28.1,30.28,ENE,61,0.0,0.0,64,0.00,,CLR,0.00,VWS V14.01,2013-03-03 13:35:00,
2013-03-03 07:40:00,39.8,27.5,30.28,ENE,61,0.0,0.0,61,0.00,,CLR,0.00,VWS V14.01,2013-03-03 13:40:00,
2013-03-03 07:45:00,40.3,27.5,30.28,ENE,61,0.0,0.0,60,0.00,,CLR,0.00,VWS V14.01,2013-03-03 13:45:00,
2013-03-03 07:50:00,40.9,27.7,30.29,ENE,61,0.0,0.0,59,0.00,,CLR,0.00,VWS V14.01,2013-03-03 13:50:00,
2013-03-03 07:55:00,41.5,28.3,30.29,ENE,61,0.0,0.0,59,0.00,,CLR,0.00,VWS V14.01,2013-03-03 13:55:00,
2013-03-03 08:00:00,42.2,28.1,30.29,ENE,61,0.0,0.0,57,0.00,,CLR,0.00,VWS V14.01,2013-03-03 14:00:00,
2013-03-03 08:05:00,43.1,27.1,30.29,ENE,61,0.0,0.0,53,0.00,,CLR,0.00,VWS V14.01,2013-03-03 14:05:00,
2013-03-03 08:10:00,43.8,27.3,30.29,ENE,61,0.0,0.0,52,0.00,,CLR,0.00,VWS V14.01,2013-03-03 14:10:00,
2013-03-03 08:15:00,44.6,27.1,30.29,ENE,61,0.0,0.0,50,0.00,,CLR,0.00,VWS V14.01,2013-03-03 14:15:00,
2013-03-03 08:20:00,45.4,26.9,30.29,ENE,65,0.0,3.0,48,0.00,,CLR,0.00,VWS V14.01,2013-03-03 14:20:00,
2013-03-03 08:25:00,46.1,26.5,30.29,ENE,65,0.0,0.0,46,0.00,,CLR,0.00,VWS V14.01,2013-03-03 14:25:00,
2013-03-03 08:30:00,47.0,26.2,30.29,ENE,69,1.0,3.0,44,0.00,,CLR,0.00,VWS V14.01,2013-03-03 14:30:00,
2013-03-03 08:35:00,47.4,26.6,30.29,East,91,0.0,4.0,44,0.00,,CLR,0.00,VWS V14.01,2013-03-03 14:35:00,
2013-03-03 08:40:00,48.2,27.9,30.29,East,93,2.0,4.0,45,0.00,,CLR,0.00,VWS V14.01,2013-03-03 14:40:00,
2013-03-03 08:45:00,48.8,27.9,30.29,SE,144,0.0,3.0,44,0.00,,CLR,0.00,VWS V14.01,2013-03-03 14:45:00,
2013-03-03 08:50:00,49.6,29.1,30.29,South,170,2.0,5.0,45,0.00,,CLR,0.00,VWS V14.01,2013-03-03 14:50:00,
2013-03-03 08:55:00,50.4,29.3,30.29,SSE,159,2.0,3.0,44,0.00,,CLR,0.00,VWS V14.01,2013-03-03 14:55:00,
2013-03-03 09:00:00,51.1,29.4,30.29,SSW,204,4.0,6.0,43,0.00,,CLR,0.00,VWS V14.01,2013-03-03 15:00:00,
2013-03-03 09:05:00,51.9,29.5,30.28,SSW,192,5.0,5.0,42,0.00,,CLR,0.00,VWS V14.01,2013-03-03 15:05:00,
2013-03-03 09:10:00,52.3,29.9,30.28,South,178,0.0,6.0,42,0.00,,CLR,0.00,VWS V14.01,2013-03-03 15:10:00,
2013-03-03 09:15:00,52.5,30.7,30.28,South,177,5.0,10.0,43,0.00,,CLR,0.00,VWS V14.01,2013-03-03 15:15:00,
2013-03-03 09:20:00,52.9,31.0,30.29,SSE,164,4.0,10.0,43,0.00,,CLR,0.00,VWS V14.01,2013-03-03 15:20:00,
2013-03-03 09:25:00,53.5,31.6,30.29,South,179,0.0,3.0,43,0.00,,CLR,0.00,VWS V14.01,2013-03-03 15:25:00,
2013-03-03 09:30:00,54.2,32.2,30.29,South,181,2.0,5.0,43,0.00,,CLR,0.00,VWS V14.01,2013-03-03 15:30:00,
2013-03-03 09:35:00,54.8,32.8,30.28,SSW,196,1.0,5.0,43,0.00,,CLR,0.00,VWS V14.01,2013-03-03 15:35:00,
2013-03-03 09:40:00,55.9,33.2,30.28,South,175,0.0,6.0,42,0.00,,CLR,0.00,VWS V14.01,2013-03-03 15:40:00,
2013-03-03 09:45:00,56.5,33.7,30.28,South,176,2.0,3.0,42,0.00,,CLR,0.00,VWS V14.01,2013-03-03 15:45:00,
2013-03-03 09:50:00,57.2,34.3,30.27,South,188,7.0,7.0,42,0.00,,CLR,0.00,VWS V14.01,2013-03-03 15:50:00,
2013-03-03 09:55:00,58.0,35.1,30.27,SSE,148,0.0,11.0,42,0.00,,CLR,0.00,VWS V14.01,2013-03-03 15:55:00,
2013-03-03 10:00:00,58.3,34.7,30.27,SSW,200,7.0,13.0,41,0.00,,CLR,0.00,VWS V14.01,2013-03-03 16:00:00,
2013-03-03 10:05:00,58.7,35.1,30.27,SSE,158,0.0,11.0,41,0.00,,CLR,0.00,VWS V14.01,2013-03-03 16:05:00,
2013-03-03 10:10:00,59.2,34.9,30.27,SSW,205,3.0,11.0,40,0.00,,CLR,0.00,VWS V14.01,2013-03-03 16:10:00,
2013-03-03 10:15:00,59.6,35.3,30.27,South,171,5.0,10.0,40,0.00,,CLR,0.00,VWS V14.01,2013-03-03 16:15:00,
2013-03-03 10:20:00,60.2,35.8,30.26,SSW,200,13.0,13.0,40,0.00,,CLR,0.00,VWS V14.01,2013-03-03 16:20:00,
2013-03-03 10:25:00,60.2,35.2,30.26,SSW,199,6.0,16.0,39,0.00,,CLR,0.00,VWS V14.01,2013-03-03 16:25:00,
2013-03-03 10:30:00,60.4,35.3,30.26,SE,143,9.0,16.0,39,0.00,,CLR,0.00,VWS V14.01,2013-03-03 16:30:00,
2013-03-03 10:35:00,60.5,34.8,30.25,South,190,7.0,14.0,38,0.00,,CLR,0.00,VWS V14.01,2013-03-03 16:35:00,
2013-03-03 10:40:00,61.0,33.9,30.25,South,171,7.0,14.0,36,0.00,,CLR,0.00,VWS V14.01,2013-03-03 16:40:00,
2013-03-03 10:45:00,60.7,32.9,30.25,South,171,7.0,15.0,35,0.00,,CLR,0.00,VWS V14.01,2013-03-03 16:45:00,
2013-03-03 10:50:00,61.2,34.1,30.25,SSE,163,4.0,15.0,36,0.00,,CLR,0.00,VWS V14.01,2013-03-03 16:50:00,
2013-03-03 10:55:00,61.8,33.9,30.25,South,184,5.0,13.0,35,0.00,,CLR,0.00,VWS V14.01,2013-03-03 16:55:00,
2013-03-03 11:00:00,62.3,34.3,30.25,South,184,3.0,13.0,35,0.00,,CLR,0.00,VWS V14.01,2013-03-03 17:00:00,
2013-03-03 11:05:00,62.7,34.0,30.23,SSW,197,6.0,12.0,34,0.00,,CLR,0.00,VWS V14.01,2013-03-03 17:05:00,
2013-03-03 11:10:00,62.6,33.1,30.23,SSW,201,7.0,14.0,33,0.00,,CLR,0.00,VWS V14.01,2013-03-03 17:10:00,
2013-03-03 11:15:00,62.9,33.4,30.23,South,184,3.0,14.0,33,0.00,,CLR,0.00,VWS V14.01,2013-03-03 17:15:00,
2013-03-03 11:20:00,63.1,33.6,30.23,South,186,1.0,14.0,33,0.00,,CLR,0.00,VWS V14.01,2013-03-03 17:20:00,
2013-03-03 11:25:00,63.7,34.1,30.23,SSW,196,5.0,13.0,33,0.00,,CLR,0.00,VWS V14.01,2013-03-03 17:25:00,
2013-03-03 11:30:00,64.5,33.2,30.23,South,180,6.0,13.0,31,0.00,,CLR,0.00,VWS V14.01,2013-03-03 17:30:00,
2013-03-03 11:35:00,64.8,33.5,30.22,South,185,4.0,12.0,31,0.00,,CLR,0.00,VWS V14.01,2013-03-03 17:35:00,
2013-03-03 11:40:00,65.3,32.3,30.22,SSW,201,14.0,14.0,29,0.00,,CLR,0.00,VWS V14.01,2013-03-03 17:40:00,
2013-03-03 11:45:00,65.5,32.4,30.22,SSE,165,6.0,14.0,29,0.00,,CLR,0.00,VWS V14.01,2013-03-03 17:45:00,
2013-03-03 11:50:00,65.8,33.5,30.21,South,182,2.0,14.0,30,0.00,,CLR,0.00,VWS V14.01,2013-03-03 17:50:00,
2013-03-03 11:55:00,66.4,32.3,30.21,South,178,10.0,13.0,28,0.00,,CLR,0.00,VWS V14.01,2013-03-03 17:55:00,
2013-03-03 12:00:00,66.3,32.2,30.21,SSW,203,3.0,15.0,28,0.00,,CLR,0.00,VWS V14.01,2013-03-03 18:00:00,
2013-03-03 12:05:00,66.8,31.8,30.20,SSW,200,0.0,11.0,27,0.00,,CLR,0.00,VWS V14.01,2013-03-03 18:05:00,
2013-03-03 12:10:00,66.9,32.8,30.20,SSW,198,11.0,16.0,28,0.00,,CLR,0.00,VWS V14.01,2013-03-03 18:10:00,
2013-03-03 12:15:00,67.1,32.0,30.20,South,178,4.0,14.0,27,0.00,,CLR,0.00,VWS V14.01,2013-03-03 18:15:00,
2013-03-03 12:20:00,67.1,32.9,30.19,South,181,7.0,14.0,28,0.00,,CLR,0.00,VWS V14.01,2013-03-03 18:20:00,
2013-03-03 12:25:00,67.4,33.2,30.19,SSW,200,7.0,16.0,28,0.00,,CLR,0.00,VWS V14.01,2013-03-03 18:25:00,
2013-03-03 12:30:00,67.9,32.7,30.19,SSW,193,2.0,16.0,27,0.00,,CLR,0.00,VWS V14.01,2013-03-03 18:30:00,
2013-03-03 12:35:00,67.8,32.6,30.17,SSW,192,11.0,14.0,27,0.00,,CLR,0.00,VWS V14.01,2013-03-03 18:35:00,
2013-03-03 12:40:00,68.1,32.9,30.17,South,182,9.0,16.0,27,0.00,,CLR,0.00,VWS V14.01,2013-03-03 18:40:00,
2013-03-03 12:45:00,68.4,32.2,30.17,South,190,6.0,20.0,26,0.00,,CLR,0.00,VWS V14.01,2013-03-03 18:45:00,
2013-03-03 12:50:00,68.9,33.6,30.16,South,176,6.0,20.0,27,0.00,,CLR,0.00,VWS V14.01,2013-03-03 18:50:00,
2013-03-03 12:55:00,69.6,33.2,30.16,SSE,148,6.0,13.0,26,0.00,,CLR,0.00,VWS V14.01,2013-03-03 18:55:00,
2013-03-03 13:00:00,70.1,32.7,30.16,SSE,163,4.0,17.0,25,0.00,,CLR,0.00,VWS V14.01,2013-03-03 19:00:00,
2013-03-03 13:05:00,70.4,32.9,30.15,South,189,14.0,14.0,25,0.00,,CLR,0.00,VWS V14.01,2013-03-03 19:05:00,
2013-03-03 13:10:00,70.8,32.3,30.15,SSE,151,0.0,14.0,24,0.00,,CLR,0.00,VWS V14.01,2013-03-03 19:10:00,
2013-03-03 13:15:00,71.6,32.9,30.15,SSW,198,6.0,10.0,24,0.00,,CLR,0.00,VWS V14.01,2013-03-03 19:15:00,
2013-03-03 13:20:00,71.5,31.8,30.13,SE,146,3.0,18.0,23,0.00,,CLR,0.00,VWS V14.01,2013-03-03 19:20:00,
2013-03-03 13:25:00,71.8,32.0,30.13,South,170,6.0,12.0,23,0.00,,CLR,0.00,VWS V14.01,2013-03-03 19:25:00,
2013-03-03 13:30:00,72.1,32.3,30.13,SSE,161,3.0,12.0,23,0.00,,CLR,0.00,VWS V14.01,2013-03-03 19:30:00,
2013-03-03 13:35:00,72.7,30.5,30.12,SSW,200,13.0,13.0,21,0.00,,CLR,0.00,VWS V14.01,2013-03-03 19:35:00,
2013-03-03 13:40:00,72.0,32.2,30.12,SSW,209,6.0,15.0,23,0.00,,CLR,0.00,VWS V14.01,2013-03-03 19:40:00,
2013-03-03 13:45:00,72.7,31.7,30.12,SSW,196,6.0,12.0,22,0.00,,CLR,0.00,VWS V14.01,2013-03-03 19:45:00,
2013-03-03 13:50:00,72.5,30.4,30.11,SSW,194,5.0,16.0,21,0.00,,CLR,0.00,VWS V14.01,2013-03-03 19:50:00,
2013-03-03 13:55:00,72.3,31.4,30.11,South,182,5.0,13.0,22,0.00,,CLR,0.00,VWS V14.01,2013-03-03 19:55:00,
2013-03-03 14:00:00,72.5,31.5,30.11,SSW,194,10.0,17.0,22,0.00,,CLR,0.00,VWS V14.01,2013-03-03 20:00:00,
2013-03-03 14:05:00,73.0,30.8,30.10,South,191,2.0,12.0,21,0.00,,CLR,0.00,VWS V14.01,2013-03-03 20:05:00,
2013-03-03 14:10:00,72.7,31.7,30.10,SSW,195,11.0,18.0,22,0.00,,CLR,0.00,VWS V14.01,2013-03-03 20:10:00,
2013-03-03 14:15:00,73.3,32.2,30.10,South,190,7.0,10.0,22,0.00,,CLR,0.00,VWS V14.01,2013-03-03 20:15:00,
2013-03-03 14:20:00,73.3,32.2,30.09,SSW,202,7.0,15.0,22,0.00,,CLR,0.00,VWS V14.01,2013-03-03 20:20:00,
2013-03-03 14:25:00,73.5,32.4,30.09,SSW,197,14.0,14.0,22,0.00,,CLR,0.00,VWS V14.01,2013-03-03 20:25:00,
2013-03-03 14:30:00,73.5,32.4,30.09,SSE,164,10.0,14.0,22,0.00,,CLR,0.00,VWS V14.01,2013-03-03 20:30:00,
2013-03-03 14:35:00,73.7,32.5,30.09,South,169,3.0,14.0,22,0.00,,CLR,0.00,VWS V14.01,2013-03-03 20:35:00,
2013-03-03 14:40:00,73.9,32.7,30.09,SW,217,7.0,15.0,22,0.00,,CLR,0.00,VWS V14.01,2013-03-03 20:40:00,
2013-03-03 14:45:00,73.7,33.6,30.09,South,178,12.0,13.0,23,0.00,,CLR,0.00,VWS V14.01,2013-03-03 20:45:00,
2013-03-03 14:50:00,73.9,33.8,30.07,SSW,206,3.0,22.0,23,0.00,,CLR,0.00,VWS V14.01,2013-03-03 20:50:00,
2013-03-03 14:55:00,73.9,33.8,30.07,South,180,11.0,19.0,23,0.00,,CLR,0.00,VWS V14.01,2013-03-03 20:55:00,
2013-03-03 15:00:00,74.2,34.1,30.07,SSE,157,7.0,19.0,23,0.00,,CLR,0.00,VWS V14.01,2013-03-03 21:00:00,
2013-03-03 15:05:00,74.6,34.4,30.07,SSW,195,6.0,13.0,23,0.00,,CLR,0.00,VWS V14.01,2013-03-03 21:05:00,
2013-03-03 15:10:00,75.3,33.9,30.07,South,171,3.0,13.0,22,0.00,,CLR,0.00,VWS V14.01,2013-03-03 21:10:00,
2013-03-03 15:15:00,75.8,33.1,30.07,SSW,200,2.0,15.0,21,0.00,,CLR,0.00,VWS V14.01,2013-03-03 21:15:00,
2013-03-03 15:20:00,75.6,33.0,30.06,SW,223,9.0,15.0,21,0.00,,CLR,0.00,VWS V14.01,2013-03-03 21:20:00,
2013-03-03 15:25:00,75.4,32.8,30.06,SSW,200,2.0,11.0,21,0.00,,CLR,0.00,VWS V14.01,2013-03-03 21:25:00,
2013-03-03 15:30:00,75.6,31.7,30.06,SSE,158,13.0,17.0,20,0.00,,CLR,0.00,VWS V14.01,2013-03-03 21:30:00,
2013-03-03 15:35:00,75.4,32.8,30.06,South,188,5.0,12.0,21,0.00,,CLR,0.00,VWS V14.01,2013-03-03 21:35:00,
2013-03-03 15:40:00,75.6,31.7,30.06,South,190,6.0,13.0,20,0.00,,CLR,0.00,VWS V14.01,2013-03-03 21:40:00,
2013-03-03 15:45:00,75.8,31.9,30.06,SSE,159,6.0,12.0,20,0.00,,CLR,0.00,VWS V14.01,2013-03-03 21:45:00,
2013-03-03 15:50:00,76.3,32.3,30.05,South,171,2.0,17.0,20,0.00,,CLR,0.00,VWS V14.01,2013-03-03 21:50:00,
2013-03-03 15:54:00,76.5,32.5,30.05,SW,219,7.0,12.0,20,0.00,,CLR,0.00,VWS V14.01,2013-03-03 21:54:00,
2013-03-03 15:59:00,76.3,32.3,30.05,SSW,194,3.0,12.0,20,0.00,,CLR,0.00,VWS V14.01,2013-03-03 21:59:00,
2013-03-03 16:04:00,76.8,31.5,30.04,South,174,5.0,11.0,19,0.00,,CLR,0.00,VWS V14.01,2013-03-03 22:04:00,
2013-03-03 16:09:00,76.8,31.5,30.04,SSW,203,10.0,13.0,19,0.00,,CLR,0.00,VWS V14.01,2013-03-03 22:09:00,
2013-03-03 16:14:00,76.7,31.4,30.04,South,182,3.0,11.0,19,0.00,,CLR,0.00,VWS V14.01,2013-03-03 22:14:00,
2013-03-03 16:19:00,76.7,31.4,30.03,South,178,12.0,13.0,19,0.00,,CLR,0.00,VWS V14.01,2013-03-03 22:19:00,
2013-03-03 16:24:00,76.5,31.2,30.03,SE,132,9.0,12.0,19,0.00,,CLR,0.00,VWS V14.01,2013-03-03 22:24:00,
2013-03-03 16:29:00,76.7,31.4,30.03,SE,126,9.0,14.0,19,0.00,,CLR,0.00,VWS V14.01,2013-03-03 22:29:00,
2013-03-03 16:34:00,76.5,29.9,30.02,South,171,12.0,12.0,18,0.00,,CLR,0.00,VWS V14.01,2013-03-03 22:34:00,
2013-03-03 16:39:00,76.5,29.9,30.02,SSW,207,10.0,14.0,18,0.00,,CLR,0.00,VWS V14.01,2013-03-03 22:39:00,
2013-03-03 16:44:00,76.8,30.1,30.02,SSE,161,4.0,11.0,18,0.00,,CLR,0.00,VWS V14.01,2013-03-03 22:44:00,
2013-03-03 16:49:00,76.7,30.0,30.02,SSW,194,9.0,17.0,18,0.00,,CLR,0.00,VWS V14.01,2013-03-03 22:49:00,
2013-03-03 16:54:00,76.5,29.9,30.02,SSW,196,13.0,15.0,18,0.00,,CLR,0.00,VWS V14.01,2013-03-03 22:54:00,
2013-03-03 16:59:00,76.5,29.9,30.02,SSE,162,3.0,16.0,18,0.00,,CLR,0.00,VWS V14.01,2013-03-03 22:59:00,
2013-03-03 17:04:00,76.7,30.0,30.01,South,191,3.0,12.0,18,0.00,,CLR,0.00,VWS V14.01,2013-03-03 23:04:00,
2013-03-03 17:09:00,76.5,31.2,30.01,SSE,151,3.0,12.0,19,0.00,,CLR,0.00,VWS V14.01,2013-03-03 23:09:00,
2013-03-03 17:14:00,76.3,31.0,30.01,SSW,199,12.0,13.0,19,0.00,,CLR,0.00,VWS V14.01,2013-03-03 23:14:00,
2013-03-03 17:19:00,76.1,30.9,30.01,South,174,13.0,20.0,19,0.00,,CLR,0.00,VWS V14.01,2013-03-03 23:19:00,
2013-03-03 17:24:00,76.0,30.8,30.01,SSE,167,11.0,13.0,19,0.00,,CLR,0.00,VWS V14.01,2013-03-03 23:24:00,
2013-03-03 17:29:00,75.8,30.6,30.01,South,186,2.0,13.0,19,0.00,,CLR,0.00,VWS V14.01,2013-03-03 23:29:00,
2013-03-03 17:34:00,75.8,30.6,30.01,SSW,206,7.0,14.0,19,0.00,,CLR,0.00,VWS V14.01,2013-03-03 23:34:00,
2013-03-03 17:39:00,75.6,30.5,30.01,South,169,5.0,15.0,19,0.00,,CLR,0.00,VWS V14.01,2013-03-03 23:39:00,
2013-03-03 17:44:00,75.4,30.3,30.01,SSW,198,9.0,11.0,19,0.00,,CLR,0.00,VWS V14.01,2013-03-03 23:44:00,
2013-03-03 17:49:00,74.9,31.2,30.01,South,186,2.0,11.0,20,0.00,,CLR,0.00,VWS V14.01,2013-03-03 23:49:00,
2013-03-03 17:54:00,74.7,31.0,30.01,South,183,3.0,7.0,20,0.00,,CLR,0.00,VWS V14.01,2013-03-03 23:54:00,
2013-03-03 17:59:00,74.6,30.9,30.01,South,172,5.0,12.0,20,0.00,,CLR,0.00,VWS V14.01,2013-03-03 23:59:00,
2013-03-03 18:04:00,74.4,30.8,30.01,South,173,4.0,11.0,20,0.00,,CLR,0.00,VWS V14.01,2013-03-04 00:04:00,
2013-03-03 18:09:00,74.2,30.6,30.01,SSE,158,6.0,12.0,20,0.00,,CLR,0.00,VWS V14.01,2013-03-04 00:09:00,
2013-03-03 18:14:00,74.0,30.4,30.01,SSE,159,5.0,8.0,20,0.00,,CLR,0.00,VWS V14.01,2013-03-04 00:14:00,
2013-03-03 18:19:00,73.9,31.5,30.01,SSE,157,0.0,10.0,21,0.00,,CLR,0.00,VWS V14.01,2013-03-04 00:19:00,
2013-03-03 18:24:00,73.5,31.2,30.01,South,178,5.0,7.0,21,0.00,,CLR,0.00,VWS V14.01,2013-03-04 00:24:00,
2013-03-03 18:29:00,73.2,31.0,30.01,SE,146,0.0,7.0,21,0.00,,CLR,0.00,VWS V14.01,2013-03-04 00:29:00,
2013-03-03 18:34:00,72.8,30.6,30.00,South,182,0.0,5.0,21,0.00,,CLR,0.00,VWS V14.01,2013-03-04 00:34:00,
2013-03-03 18:39:00,72.5,30.4,30.00,South,176,7.0,7.0,21,0.00,,CLR,0.00,VWS V14.01,2013-03-04 00:39:00,
2013-03-03 18:44:00,72.1,31.2,30.00,South,185,0.0,3.0,22,0.00,,CLR,0.00,VWS V14.01,2013-03-04 00:44:00,
2013-03-03 18:49:00,71.8,30.9,30.00,SSE,159,0.0,7.0,22,0.00,,CLR,0.00,VWS V14.01,2013-03-04 00:49:00,
2013-03-03 18:54:00,71.5,31.8,30.00,South,169,6.0,9.0,23,0.00,,CLR,0.00,VWS V14.01,2013-03-04 00:54:00,
2013-03-03 18:59:00,70.8,35.2,30.00,SE,142,5.0,11.0,27,0.00,,CLR,0.00,VWS V14.01,2013-03-04 00:59:00,
2013-03-03 19:04:00,70.3,37.4,30.01,SSE,150,3.0,14.0,30,0.00,,CLR,0.00,VWS V14.01,2013-03-04 01:04:00,
2013-03-03 19:09:00,69.6,39.2,30.01,SSE,165,4.0,17.0,33,0.00,,CLR,0.00,VWS V14.01,2013-03-04 01:09:00,
2013-03-03 19:14:00,69.1,39.6,30.01,South,177,4.0,11.0,34,0.00,,CLR,0.00,VWS V14.01,2013-03-04 01:14:00,
2013-03-03 19:19:00,68.8,40.1,30.01,South,183,2.0,11.0,35,0.00,,CLR,0.00,VWS V14.01,2013-03-04 01:19:00,
2013-03-03 19:24:00,68.3,40.3,30.01,SE,139,4.0,13.0,36,0.00,,CLR,0.00,VWS V14.01,2013-03-04 01:24:00,
2013-03-03 19:29:00,67.9,40.7,30.01,ESE,111,5.0,13.0,37,0.00,,CLR,0.00,VWS V14.01,2013-03-04 01:29:00,
2013-03-03 19:34:00,67.6,41.1,30.01,SSE,166,3.0,7.0,38,0.00,,CLR,0.00,VWS V14.01,2013-03-04 01:34:00,
2013-03-03 19:39:00,67.1,41.3,30.01,SE,134,2.0,10.0,39,0.00,,CLR,0.00,VWS V14.01,2013-03-04 01:39:00,
2013-03-03 19:44:00,66.6,41.5,30.01,ESE,102,9.0,11.0,40,0.00,,CLR,0.00,VWS V14.01,2013-03-04 01:44:00,
2013-03-03 19:49:00,66.1,42.4,30.01,SE,134,4.0,13.0,42,0.00,,CLR,0.00,VWS V14.01,2013-03-04 01:49:00,
2013-03-03 19:54:00,65.6,42.5,30.01,SSE,162,2.0,9.0,43,0.00,,CLR,0.00,VWS V14.01,2013-03-04 01:54:00,
2013-03-03 19:59:00,65.2,42.8,30.01,ESE,121,0.0,14.0,44,0.00,,CLR,0.00,VWS V14.01,2013-03-04 01:59:00,
2013-03-03 20:04:00,64.8,43.0,30.02,SSE,150,3.0,11.0,45,0.00,,CLR,0.00,VWS V14.01,2013-03-04 02:04:00,
2013-03-03 20:09:00,64.5,43.3,30.02,SSE,167,4.0,12.0,46,0.00,,CLR,0.00,VWS V14.01,2013-03-04 02:09:00,
2013-03-03 20:14:00,64.2,43.6,30.02,SE,136,3.0,12.0,47,0.00,,CLR,0.00,VWS V14.01,2013-03-04 02:14:00,
2013-03-03 20:19:00,63.9,43.8,30.01,East,81,4.0,12.0,48,0.00,,CLR,0.00,VWS V14.01,2013-03-04 02:19:00,
2013-03-03 20:24:00,63.5,43.5,30.01,SSE,150,2.0,12.0,48,0.00,,CLR,0.00,VWS V14.01,2013-03-04 02:24:00,
2013-03-03 20:29:00,63.2,43.7,30.01,SSE,164,3.0,12.0,49,0.00,,CLR,0.00,VWS V14.01,2013-03-04 02:29:00,
2013-03-03 20:34:00,62.9,43.5,30.01,SSE,163,1.0,18.0,49,0.00,,CLR,0.00,VWS V14.01,2013-03-04 02:34:00,
2013-03-03 20:39:00,62.7,43.3,30.01,SSE,150,6.0,18.0,49,0.00,,CLR,0.00,VWS V14.01,2013-03-04 02:39:00,
2013-03-03 20:44:00,62.4,43.5,30.01,SSE,154,4.0,13.0,50,0.00,,CLR,0.00,VWS V14.01,2013-03-04 02:44:00,
2013-03-03 20:49:00,62.3,43.4,30.01,SSE,167,4.0,13.0,50,0.00,,CLR,0.00,VWS V14.01,2013-03-04 02:49:00,
2013-03-03 20:54:00,62.0,43.7,30.01,South,175,5.0,12.0,51,0.00,,CLR,0.00,VWS V14.01,2013-03-04 02:54:00,
2013-03-03 20:59:00,61.8,43.5,30.01,South,184,5.0,12.0,51,0.00,,CLR,0.00,VWS V14.01,2013-03-04 02:59:00,
2013-03-03 21:04:00,61.5,43.7,30.02,SSE,163,4.0,17.0,52,0.00,,CLR,0.00,VWS V14.01,2013-03-04 03:04:00,
2013-03-03 21:09:00,61.3,43.5,30.02,South,187,5.0,17.0,52,0.00,,CLR,0.00,VWS V14.01,2013-03-04 03:09:00,
2013-03-03 21:14:00,61.0,43.8,30.02,SE,144,3.0,14.0,53,0.00,,CLR,0.00,VWS V14.01,2013-03-04 03:14:00,
2013-03-03 21:19:00,60.7,43.5,30.01,SE,142,9.0,15.0,53,0.00,,CLR,0.00,VWS V14.01,2013-03-04 03:19:00,
2013-03-03 21:24:00,60.5,43.3,30.01,SSE,163,5.0,8.0,53,0.00,,CLR,0.00,VWS V14.01,2013-03-04 03:24:00,
2013-03-03 21:29:00,60.4,43.2,30.01,South,185,5.0,13.0,53,0.00,,CLR,0.00,VWS V14.01,2013-03-04 03:29:00,
2013-03-03 21:34:00,60.2,43.0,30.01,SSE,167,5.0,7.0,53,0.00,,CLR,0.00,VWS V14.01,2013-03-04 03:34:00,
2013-03-03 21:39:00,60.1,42.9,30.01,SSE,165,4.0,14.0,53,0.00,,CLR,0.00,VWS V14.01,2013-03-04 03:39:00,
2013-03-03 21:44:00,59.9,42.7,30.01,SE,144,0.0,8.0,53,0.00,,CLR,0.00,VWS V14.01,2013-03-04 03:44:00,
2013-03-03 21:49:00,59.8,42.7,30.01,ESE,115,9.0,13.0,53,0.00,,CLR,0.00,VWS V14.01,2013-03-04 03:49:00,
2013-03-03 21:54:00,59.5,42.4,30.01,SE,135,4.0,5.0,53,0.00,,CLR,0.00,VWS V14.01,2013-03-04 03:54:00,
2013-03-03 21:59:00,59.3,42.7,30.01,SE,142,2.0,10.0,54,0.00,,CLR,0.00,VWS V14.01,2013-03-04 03:59:00,
2013-03-03 22:04:00,59.2,42.6,30.01,SE,137,0.0,5.0,54,0.00,,CLR,0.00,VWS V14.01,2013-03-04 04:04:00,
2013-03-03 22:09:00,59.2,42.1,30.01,SSE,149,0.0,7.0,53,0.00,,CLR,0.00,VWS V14.01,2013-03-04 04:09:00,
2013-03-03 22:14:00,59.0,41.9,30.01,SSE,163,5.0,10.0,53,0.00,,CLR,0.00,VWS V14.01,2013-03-04 04:14:00,
2013-03-03 22:19:00,58.9,42.3,30.01,SE,146,3.0,10.0,54,0.00,,CLR,0.00,VWS V14.01,2013-03-04 04:19:00,
2013-03-03 22:24:00,58.9,42.3,30.01,SSE,155,2.0,11.0,54,0.00,,CLR,0.00,VWS V14.01,2013-03-04 04:24:00,
2013-03-03 22:29:00,58.7,42.1,30.01,SSE,155,1.0,12.0,54,0.00,,CLR,0.00,VWS V14.01,2013-03-04 04:29:00,
2013-03-03 22:34:00,58.7,42.1,30.01,South,175,6.0,6.0,54,0.00,,CLR,0.00,VWS V14.01,2013-03-04 04:34:00,
2013-03-03 22:39:00,58.7,42.6,30.01,SSE,161,2.0,9.0,55,0.00,,CLR,0.00,VWS V14.01,2013-03-04 04:39:00,
2013-03-03 22:44:00,58.6,42.5,30.01,SSE,155,5.0,10.0,55,0.00,,CLR,0.00,VWS V14.01,2013-03-04 04:44:00,
2013-03-03 22:49:00,58.6,43.0,30.01,South,177,0.0,11.0,56,0.00,,CLR,0.00,VWS V14.01,2013-03-04 04:49:00,
2013-03-03 22:54:00,58.4,42.8,30.01,SSE,153,0.0,6.0,56,0.00,,CLR,0.00,VWS V14.01,2013-03-04 04:54:00,
2013-03-03 22:59:00,58.4,42.8,30.01,South,183,4.0,10.0,56,0.00,,CLR,0.00,VWS V14.01,2013-03-04 04:59:00,
2013-03-03 23:00:00,58.4,42.8,30.01,SSE,161,4.0,10.0,56,0.00,,CLR,0.00,VWS V14.01,2013-03-04 05:00:00,
2013-03-03 23:05:00,58.3,43.2,30.00,SE,140,0.0,6.0,57,0.00,,CLR,0.00,VWS V14.01,2013-03-04 05:05:00,
2013-03-03 23:10:00,58.1,43.0,30.00,South,171,0.0,9.0,57,0.00,,CLR,0.00,VWS V14.01,2013-03-04 05:10:00,
2013-03-03 23:15:00,58.1,43.0,30.00,South,178,3.0,10.0,57,0.00,,CLR,0.00,VWS V14.01,2013-03-04 05:15:00,
2013-03-03 23:20:00,58.1,43.0,30.00,South,176,0.0,10.0,57,0.00,,CLR,0.00,VWS V14.01,2013-03-04 05:20:00,
2013-03-03 23:25:00,58.1,43.0,30.00,SE,139,2.0,9.0,57,0.00,,CLR,0.00,VWS V14.01,2013-03-04 05:25:00,
2013-03-03 23:30:00,58.0,43.3,30.00,SSE,152,4.0,9.0,58,0.00,,CLR,0.00,VWS V14.01,2013-03-04 05:30:00,
2013-03-03 23:35:00,58.0,43.3,29.99,SSE,164,5.0,10.0,58,0.00,,CLR,0.00,VWS V14.01,2013-03-04 05:35:00,
2013-03-03 23:40:00,57.8,43.1,29.99,South,170,3.0,10.0,58,0.00,,CLR,0.00,VWS V14.01,2013-03-04 05:40:00,
2013-03-03 23:45:00,57.6,43.0,29.99,SSE,159,0.0,9.0,58,0.00,,CLR,0.00,VWS V14.01,2013-03-04 05:45:00,
2013-03-03 23:50:00,57.6,43.4,29.99,SSE,150,0.0,9.0,59,0.00,,CLR,0.00,VWS V14.01,2013-03-04 05:50:00,
2013-03-03 23:55:00,57.5,43.3,29.99,SSW,210,6.0,7.0,59,0.00,,CLR,0.00,VWS V14.01,2013-03-04 05:55:00,